Temp
77 76 75 75 71 68 66 64 62 62 61 60 59 58 59 59 57 56 56 56 56 55 55 53 55 53 52 51 51 53 52 51
77 73 72 71 68 66 65 62 61 60 59 58 58 57 57 56 56 56 55 54 55 53 54 53 53 51 50 50 50 49 50 50
72 70 69 67 65 65 64 63 62 62 63 63 61 58 57 56 55 54 54 53 53 53 51 51 51 50 49 48 47 46 49 49
68 67 65 65 63 63 65 63 63 64 61 61 58 57 55 54 54 52 52 52 52 51 51 50 50 49 47 46 46 46 43 47
67 65 63 63 63 63 64 64 64 63 62 59 56 56 54 55 53 52 51 51 51 52 50 49 48 48 46 46 48 45 45 43
66 65 65 65 65 63 63 63 64 62 61 60 58 56 55 55 52 51 49 49 50 50 50 48 47 46 46 45 44 44 44 42
68 67 66 65 66 63 62 62 63 61 60 59 58 55 54 52 51 50 49 49 48 49 50 47 46 45 45 45 44 43 42 42
69 66 65 64 62 61 60 61 60 59 58 58 56 55 54 52 51 50 48 47 47 46 46 45 44 45 45 45 43 42 41 40
68 66 64 64 61 60 59 60 58 58 56 55 55 55 53 53 52 50 49 48 46 46 45 45 45 45 45 44 42 41 41 40
67 66 64 63 61 59 58 59 58 57 56 54 53 53 52 50 49 48 47 47 48 46 45 44 44 44 44 43 41 41 41 40
65 64 63 63 61 58 58 58 57 56 54 53 52 51 51 49 48 47 46 46 46 44 44 43 43 43 44 43 41 42 40 40
62 58 61 61 60 59 57 57 56 54 53 52 51 50 50 48 47 46 45 45 45 45 45 44 43 43 43 41 41 41 40 39
62 59 56 51 51 56 55 55 54 53 53 51 50 49 48 47 46 46 45 44 45 45 44 44 44 43 42 41 40 41 39 38
56 57 55 50 43 45 52 54 52 51 52 49 48 47 47 45 45 45 45 44 43 44 43 42 42 41 41 41 40 39 38 37
51 46 40 46 48 43 51 51 47 50 50 48 45 45 46 45 45 44 42 43 42 41 41 40 40 40 41 41 41 38 37 37
58 52 48 44 45 47 51 52 49 49 48 47 45 46 45 45 43 43 42 41 41 40 39 38 38 40 40 36 39 36 35 34
63 57 54 49 48 48 50 51 49 49 48 47 47 46 46 43 42 42 41 40 39 38 37 33 31 31 34 35 37 34 34 33
62 61 56 55 50 49 48 50 49 48 48 48 47 46 45 43 43 43 41 40 39 37 34 33 30 26 33 34 37 32 29 26
60 60 60 57 54 49 48 50 48 47 47 47 47 46 45 44 43 42 41 40 38 36 35 34 32 31 32 33 34 29 26 26
MSLP
1006.92 1008.30 1009.46 1010.51 1011.63 1012.77 1013.65 1014.48 1015.09 1015.71 1016.22 1016.80 1017.33 1017.77 1018.02 1018.33 1018.77 1019.08 1019.18 1019.41 1019.37 1019.16 1019.36 1019.50 1019.10 1019.46 1019.56 1019.44 1019.13 1018.64 1018.33 1018.46
1006.66 1008.74 1010.01 1010.92 1012.04 1013.12 1014.09 1014.81 1015.48 1015.84 1016.42 1016.67 1017.05 1017.58 1018.11 1018.74 1019.20 1019.37 1019.63 1019.81 1019.74 1019.70 1019.64 1019.80 1019.55 1019.76 1019.96 1019.89 1019.58 1019.24 1018.77 1018.81
1006.57 1008.70 1010.45 1011.51 1012.55 1013.29 1014.09 1014.88 1015.42 1015.72 1015.90 1016.01 1016.40 1017.28 1018.10 1018.77 1019.42 1019.78 1019.97 1020.20 1020.09 1020.10 1020.18 1020.24 1020.19 1020.14 1020.40 1020.37 1020.18 1019.97 1019.28 1019.25
1006.19 1008.44 1010.27 1011.81 1012.80 1013.45 1014.04 1014.69 1015.21 1015.10 1015.56 1016.11 1016.79 1017.56 1018.39 1018.93 1019.41 1019.97 1020.30 1020.37 1020.42 1020.51 1020.66 1020.68 1020.52 1020.51 1020.60 1020.76 1020.70 1020.56 1020.33 1019.91
1006.12 1008.15 1009.89 1011.40 1012.55 1013.42 1013.78 1014.30 1014.87 1015.14 1015.51 1016.17 1016.80 1017.19 1017.73 1018.39 1019.09 1019.90 1020.49 1020.64 1020.75 1020.80 1020.99 1020.90 1020.86 1020.89 1021.03 1021.05 1021.16 1021.02 1020.92 1020.97
1006.03 1008.09 1009.79 1011.24 1012.34 1013.24 1013.66 1014.18 1014.67 1015.17 1015.74 1016.01 1016.23 1016.72 1017.56 1018.33 1019.25 1019.85 1020.49 1020.85 1021.15 1021.26 1021.24 1021.18 1021.22 1021.34 1021.46 1021.49 1021.85 1021.87 1021.76 1021.71
1005.80 1007.59 1009.22 1010.63 1011.78 1012.84 1013.63 1014.14 1014.56 1015.22 1015.82 1016.08 1016.30 1016.82 1017.73 1018.60 1019.27 1019.77 1020.33 1020.95 1021.29 1021.36 1021.45 1021.63 1021.85 1021.87 1022.11 1022.11 1022.20 1022.36 1022.26 1022.27
1005.58 1007.22 1008.81 1010.15 1011.28 1012.68 1013.78 1014.39 1014.67 1015.34 1015.89 1016.42 1016.76 1017.17 1017.63 1018.39 1019.02 1019.55 1020.27 1020.72 1021.22 1021.65 1021.81 1022.06 1022.30 1022.33 1022.46 1022.29 1022.64 1022.58 1022.92 1022.95
1005.69 1006.94 1008.45 1009.61 1010.93 1012.38 1013.69 1014.37 1014.95 1015.74 1016.28 1016.61 1017.14 1017.63 1017.95 1018.43 1018.83 1019.51 1020.06 1020.67 1021.33 1021.78 1022.04 1022.43 1022.45 1022.60 1022.50 1022.58 1022.83 1023.09 1023.24 1023.27
1006.08 1006.95 1008.37 1009.51 1010.72 1012.15 1013.47 1014.24 1015.05 1015.88 1016.42 1016.84 1017.37 1017.71 1018.05 1018.61 1019.22 1019.71 1020.34 1020.89 1021.50 1021.83 1022.31 1022.63 1022.76 1022.68 1022.69 1023.12 1023.19 1023.39 1023.30 1023.32
1007.17 1007.72 1008.71 1009.63 1010.71 1012.10 1013.34 1014.00 1014.68 1015.61 1016.52 1017.10 1017.49 1017.81 1018.21 1018.81 1019.43 1019.96 1020.69 1021.02 1021.44 1022.18 1022.47 1022.76 1022.94 1022.74 1022.89 1023.20 1023.55 1023.44 1023.59 1023.72
1007.97 1008.60 1009.19 1009.94 1010.89 1012.03 1013.25 1013.84 1014.50 1015.36 1016.29 1017.05 1017.51 1017.94 1018.37 1018.98 1019.53 1020.09 1020.88 1021.12 1021.47 1022.16 1022.67 1022.78 1022.99 1023.10 1023.24 1023.45 1023.89 1023.83 1024.00 1024.20
1008.16 1008.92 1009.56 1010.19 1010.95 1011.71 1012.66 1013.54 1014.35 1015.16 1016.09 1016.88 1017.52 1017.96 1018.52 1019.05 1019.64 1020.42 1020.79 1021.09 1021.50 1022.07 1022.57 1022.84 1023.12 1023.37 1023.40 1023.70 1023.99 1024.22 1024.34 1024.67
1007.78 1008.76 1009.53 1010.29 1010.88 1011.73 1012.27 1013.04 1013.99 1014.76 1015.59 1016.80 1017.41 1017.94 1018.57 1019.13 1019.86 1020.30 1020.77 1021.19 1021.66 1022.11 1022.56 1022.98 1023.29 1023.57 1023.87 1024.26 1024.43 1024.61 1024.81 1025.17
1007.22 1008.42 1009.71 1009.90 1010.83 1011.56 1012.22 1013.08 1013.90 1014.73 1015.45 1016.49 1017.22 1017.93 1018.46 1019.23 1019.79 1020.25 1020.68 1021.26 1021.75 1022.19 1022.68 1023.17 1023.50 1023.82 1024.18 1024.48 1024.76 1024.90 1025.17 1025.62
1005.91 1007.26 1008.59 1009.85 1010.57 1011.37 1011.95 1012.76 1013.86 1014.59 1015.42 1016.26 1017.00 1017.70 1018.38 1019.09 1019.68 1020.17 1020.71 1021.32 1021.85 1022.41 1022.96 1023.41 1023.64 1024.09 1024.67 1024.96 1024.96 1025.09 1025.40 1025.83
1005.30 1005.84 1007.07 1008.33 1009.68 1010.69 1011.52 1012.41 1013.36 1014.25 1015.07 1015.89 1016.73 1017.43 1018.13 1018.87 1019.55 1020.11 1020.74 1021.39 1022.05 1022.65 1023.09 1023.67 1024.23 1025.00 1025.46 1025.38 1025.01 1025.57 1025.81 1026.17
1004.65 1004.82 1006.04 1007.26 1008.68 1009.99 1011.15 1012.02 1013.08 1013.87 1014.68 1015.46 1016.24 1016.96 1017.76 1018.63 1019.36 1020.00 1020.71 1021.35 1021.96 1022.54 1023.23 1023.99 1024.79 1025.52 1025.71 1025.72 1025.50 1026.17 1026.49 1026.80
1004.91 1005.05 1005.46 1006.62 1007.98 1009.61 1011.01 1011.87 1012.72 1013.57 1014.28 1015.02 1015.77 1016.54 1017.40 1018.36 1019.14 1019.73 1020.45 1021.07 1021.65 1022.37 1023.06 1023.89 1024.70 1025.49 1025.81 1025.95 1026.03 1026.46 1026.73 1026.97
Wind_Speed
14 13 11 11 13 10 10 8 9 8 8 6 5 4 4 4 5 5 7 5 6 5 4 4 4 5 5 4 5 5 3 4
15 12 9 9 11 11 11 10 8 7 6 6 6 5 5 5 5 6 6 5 5 6 4 5 5 5 6 6 4 6 4 5
18 13 9 8 9 9 11 11 10 9 7 5 5 5 5 7 6 5 6 5 6 6 6 5 6 4 6 6 6 5 3 5
20 16 13 7 9 8 10 12 11 7 9 7 7 7 4 4 6 6 4 5 5 6 5 5 4 5 4 5 6 6 4 5
18 16 14 11 9 8 9 11 10 8 8 8 10 8 7 5 6 7 5 6 6 5 5 5 5 4 6 5 6 5 6 5
19 16 15 13 11 10 7 9 9 9 5 7 5 8 6 6 6 6 7 5 6 5 5 6 6 4 5 6 6 6 4 4
19 17 16 14 12 9 5 7 8 8 5 6 5 8 7 6 6 5 5 5 4 4 5 6 6 5 5 4 5 6 5 5
14 16 13 13 13 11 8 9 8 7 7 5 5 6 7 8 5 6 6 4 5 4 6 6 4 4 4 5 5 6 6 4
12 15 14 14 15 13 10 10 9 7 6 7 6 7 4 5 5 5 4 5 5 5 6 5 5 4 4 5 4 4 4 4
5 13 12 11 14 12 10 10 11 10 8 7 7 5 6 6 7 6 4 6 6 6 6 6 5 5 6 5 4 3 4 6
3 5 9 10 12 12 11 10 12 10 9 7 7 6 7 7 6 7 6 6 8 6 6 5 5 4 4 5 3 4 5 4
5 4 6 8 12 12 10 9 12 12 10 8 8 7 8 7 6 6 7 6 7 6 6 6 5 5 5 6 4 5 5 5
6 10 6 7 10 12 13 10 11 11 9 9 8 8 8 8 7 7 7 7 6 6 6 6 5 5 5 5 6 5 6 6
8 9 11 8 7 7 12 11 10 11 11 9 9 9 8 8 8 8 7 7 6 7 6 6 6 5 5 5 5 6 6 7
10 7 8 10 10 7 10 10 8 11 11 11 11 9 9 9 8 8 7 7 6 6 7 6 6 5 4 4 5 6 6 7
5 12 11 8 10 11 11 12 11 12 11 12 11 10 9 10 9 8 7 7 6 6 7 6 5 5 4 4 5 5 7 6
18 15 15 16 13 13 14 13 14 14 13 13 12 12 11 10 9 9 8 7 7 7 7 7 7 4 5 8 6 5 6 6
11 3 14 13 15 14 14 13 13 15 14 13 14 13 12 12 11 11 11 10 9 8 8 8 7 4 7 7 7 5 5 3
8 6 4 10 12 14 12 13 14 15 14 14 14 14 13 13 13 13 12 10 10 9 9 9 9 7 11 9 11 5 4 4
Wind_Direction
150 154 154 157 135 138 127 129 122 130 111 134 116 121 112 90 80 71 42 52 22 1 85 35 12 40 30 7 351 340 6 22
147 141 137 125 126 134 144 138 144 132 158 152 152 139 119 101 83 79 70 37 47 6 43 45 359 68 30 16 338 347 20 14
138 142 136 132 139 149 149 150 157 183 179 159 120 115 88 97 94 79 79 64 27 68 21 47 20 47 52 21 3 356 356 46
143 150 144 145 159 162 167 162 179 191 107 98 87 91 118 135 147 102 82 76 69 53 49 38 47 44 44 30 8 29 336 27
142 152 154 170 171 174 183 165 179 131 140 142 155 169 164 115 101 112 92 80 60 69 55 57 40 59 40 29 19 12 4 29
148 159 164 175 177 172 195 163 173 131 204 156 180 108 116 108 105 110 113 92 77 56 61 52 54 43 58 52 34 20 19 29
148 160 162 174 178 154 171 170 163 144 170 136 180 116 127 122 142 143 117 120 107 89 82 68 50 54 55 52 67 39 42 27
152 153 165 171 160 151 165 193 157 153 148 125 96 109 118 123 141 124 134 134 104 88 75 66 78 69 65 66 65 61 48 44
157 157 167 175 152 160 166 193 143 141 143 144 142 140 134 127 113 118 98 100 101 104 95 92 85 80 63 75 69 79 72 70
163 150 159 173 153 155 169 178 163 164 166 141 138 155 123 111 93 95 94 104 119 113 112 106 93 86 82 66 72 77 65 70
149 136 151 161 150 153 174 185 161 156 150 152 155 139 120 124 131 124 130 106 103 125 121 118 114 100 105 109 80 70 67 68
116 68 143 140 151 159 171 185 159 161 158 163 152 143 135 133 130 120 134 134 133 133 134 129 123 113 99 86 92 75 73 72
199 167 163 147 159 162 170 179 162 158 159 160 154 147 143 142 137 147 135 136 133 131 131 122 118 109 91 78 67 76 75 67
186 178 186 163 167 164 168 174 164 159 157 156 153 154 151 148 155 142 152 139 139 143 136 131 123 116 109 106 110 95 80 66
178 172 192 171 171 159 166 173 147 157 156 165 161 165 159 156 153 154 142 144 143 141 122 115 119 113 109 128 127 116 106 94
225 179 177 177 168 170 178 174 158 165 167 172 166 163 159 154 154 151 142 142 133 121 122 133 117 111 71 20 99 98 114 106
253 186 179 177 177 179 183 183 171 174 175 175 167 167 162 154 156 155 146 142 145 152 124 93 85 74 88 46 90 91 76 79
277 1 175 177 178 179 189 189 172 180 178 175 173 169 169 160 164 163 167 161 158 135 126 128 126 125 139 94 108 107 103 83
17 13 14 163 157 169 179 195 178 184 177 181 176 170 173 167 171 174 171 166 161 155 160 157 150 161 160 142 125 114 107 116